• în România
  • Lista ţărilor
  • Pe 7 zile
  • Temperatura apei
  • Hartă satelitară
  • Meteo pe hartă
  • Widget-uri
  • user-avatar
    Intrare

    Meteo pe oră la Canillo

    Astăzi, 23 Mai, Marţi

    Timp Temperatura Precipitaţii Vânt Presiune Umiditate
    00:00 +6°C° 0 mm 2 m/s 620 mmHg 91%
    01:00 +5°C° 0,1 mm 2 m/s 620 mmHg 92%
    02:00 +5°C° 0,1 mm 2 m/s 620 mmHg 93%
    03:00 +5°C° 0,1 mm 2 m/s 620 mmHg 94%
    04:00 +6°C° 0 mm 2 m/s 621 mmHg 91%
    05:00 +7°C° 0 mm 2 m/s 621 mmHg 89%
    06:00 +7°C° 0 mm 2 m/s 622 mmHg 86%
    07:00 +11°C° 0 mm 1 m/s 623 mmHg 76%
    08:00 +13°C° 0 mm 1 m/s 624 mmHg 67%
    09:00 +15°C° 0 mm 1 m/s 625 mmHg 57%
    10:00 +16°C° 0 mm 1 m/s 625 mmHg 55%
    11:00 +18°C° 0 mm 1 m/s 626 mmHg 53%
    12:00 +19°C° 0 mm 1 m/s 626 mmHg 51%
    13:00 +18°C° 0,1 mm 1 m/s 625 mmHg 55%
    14:00 +18°C° 0,1 mm 1 m/s 625 mmHg 59%
    15:00 +16°C° 0,1 mm 1 m/s 624 mmHg 63%
    16:00 +15°C° 0,1 mm 1 m/s 624 mmHg 67%
    17:00 +15°C° 0,1 mm 1 m/s 624 mmHg 71%
    18:00 +14°C° 0,1 mm 1 m/s 624 mmHg 75%
    19:00 +12°C° 0 mm 1 m/s 623 mmHg 81%
    20:00 +11°C° 0 mm 1 m/s 623 mmHg 87%
    21:00 +9°C° 0 mm 1 m/s 622 mmHg 93%
    22:00 +8°C° 0 mm 1 m/s 622 mmHg 93%
    23:00 +8°C° 0 mm 1 m/s 622 mmHg 92%

    Mâine, 24 Mai, Miercuri

    Timp Temperatura Precipitaţii Vânt Presiune Umiditate
    00:00 +8°C° 0 mm 1 m/s 622 mmHg 92%
    01:00 +7°C° 0 mm 1 m/s 622 mmHg 90%
    02:00 +7°C° 0 mm 1 m/s 621 mmHg 88%
    03:00 +6°C° 0 mm 1 m/s 621 mmHg 86%
    04:00 +8°C° 0 mm 1 m/s 622 mmHg 81%
    05:00 +10°C° 0 mm 1 m/s 622 mmHg 76%
    06:00 +11°C° 0 mm 1 m/s 623 mmHg 71%
    07:00 +14°C° 0 mm 1 m/s 624 mmHg 63%
    08:00 +16°C° 0 mm 1 m/s 625 mmHg 55%
    09:00 +19°C° 0 mm 1 m/s 626 mmHg 47%
    10:00 +20°C° 0 mm 1 m/s 626 mmHg 45%
    11:00 +21°C° 0 mm 1 m/s 626 mmHg 43%
    12:00 +22°C° 0 mm 1 m/s 626 mmHg 40%
    13:00 +21°C° 0 mm 2 m/s 626 mmHg 42%
    14:00 +20°C° 0 mm 2 m/s 625 mmHg 45%
    15:00 +20°C° 0 mm 2 m/s 625 mmHg 47%
    16:00 +20°C° 0,1 mm 1 m/s 624 mmHg 54%
    17:00 +18°C° 0,1 mm 1 m/s 623 mmHg 62%
    18:00 +16°C° 0,1 mm 1 m/s 623 mmHg 69%
    19:00 +14°C° 0 mm 1 m/s 622 mmHg 75%
    20:00 +12°C° 0 mm 1 m/s 621 mmHg 82%
    21:00 +9°C° 0 mm 1 m/s 620 mmHg 88%
    22:00 +8°C° 0 mm 0 m/s 620 mmHg 88%
    23:00 +7°C° 0 mm 0 m/s 620 mmHg 89%

    Poimâine, 25 Mai, Joi

    Timp Temperatura Precipitaţii Vânt Presiune Umiditate
    00:00 +7°C° 0 mm 0 m/s 620 mmHg 89%
    01:00 +7°C° 0 mm 0 m/s 619 mmHg 89%
    02:00 +6°C° 0 mm 0 m/s 619 mmHg 89%
    03:00 +7°C° 0 mm 1 m/s 619 mmHg 89%
    04:00 +9°C° 0 mm 1 m/s 620 mmHg 84%
    05:00 +11°C° 0 mm 1 m/s 621 mmHg 80%
    06:00 +12°C° 0 mm 0 m/s 622 mmHg 75%
    07:00 +15°C° 0 mm 1 m/s 622 mmHg 66%
    08:00 +18°C° 0 mm 1 m/s 623 mmHg 57%
    09:00 +20°C° 0 mm 1 m/s 624 mmHg 49%
    10:00 +21°C° 0 mm 1 m/s 624 mmHg 47%
    11:00 +21°C° 0 mm 2 m/s 624 mmHg 45%
    12:00 +23°C° 0 mm 2 m/s 624 mmHg 43%
    13:00 +21°C° 0,1 mm 2 m/s 624 mmHg 45%
    14:00 +21°C° 0,1 mm 2 m/s 623 mmHg 47%
    15:00 +20°C° 0,1 mm 2 m/s 623 mmHg 49%
    16:00 +20°C° 0 mm 2 m/s 622 mmHg 53%
    17:00 +19°C° 0 mm 2 m/s 622 mmHg 58%
    18:00 +19°C° 0 mm 1 m/s 622 mmHg 62%
    19:00 +15°C° 0,1 mm 1 m/s 621 mmHg 69%
    20:00 +13°C° 0,1 mm 1 m/s 620 mmHg 76%
    21:00 +10°C° 0,1 mm 1 m/s 619 mmHg 83%
    22:00 +10°C° 0 mm 1 m/s 619 mmHg 83%
    23:00 +9°C° 0 mm 1 m/s 619 mmHg 82%

    26 Mai, Vineri

    Timp Temperatura Precipitaţii Vânt Presiune Umiditate
    00:00 +9°C° 0 mm 1 m/s 618 mmHg 82%
    01:00 +9°C° 0 mm 1 m/s 618 mmHg 81%
    02:00 +9°C° 0 mm 1 m/s 618 mmHg 80%
    03:00 +8°C° 0 mm 1 m/s 618 mmHg 80%
    04:00 +10°C° 0 mm 1 m/s 618 mmHg 76%
    05:00 +11°C° 0 mm 1 m/s 619 mmHg 72%
    06:00 +13°C° 0 mm 1 m/s 619 mmHg 68%
    07:00 +15°C° 0 mm 1 m/s 620 mmHg 58%
    08:00 +19°C° 0 mm 1 m/s 621 mmHg 48%
    09:00 +21°C° 0 mm 1 m/s 622 mmHg 39%
    10:00 +22°C° 0 mm 1 m/s 622 mmHg 37%
    11:00 +23°C° 0 mm 2 m/s 622 mmHg 35%
    12:00 +24°C° 0 mm 2 m/s 622 mmHg 33%
    13:00 +24°C° 0 mm 3 m/s 622 mmHg 34%
    14:00 +24°C° 0 mm 3 m/s 622 mmHg 35%
    15:00 +22°C° 0 mm 3 m/s 621 mmHg 37%
    16:00 +21°C° 0 mm 3 m/s 620 mmHg 44%
    17:00 +19°C° 0 mm 2 m/s 620 mmHg 51%
    18:00 +18°C° 0 mm 2 m/s 619 mmHg 59%
    19:00 +16°C° 0,1 mm 2 m/s 618 mmHg 66%
    20:00 +13°C° 0,1 mm 2 m/s 618 mmHg 73%
    21:00 +11°C° 0,1 mm 1 m/s 617 mmHg 79%
    22:00 +10°C° 0 mm 1 m/s 617 mmHg 79%
    23:00 +10°C° 0 mm 1 m/s 617 mmHg 78%

    27 Mai, Sâmbătă

    Timp Temperatura Precipitaţii Vânt Presiune Umiditate
    00:00 +10°C° 0 mm 1 m/s 616 mmHg 78%
    01:00 +9°C° 0 mm 1 m/s 616 mmHg 77%
    02:00 +9°C° 0 mm 1 m/s 616 mmHg 77%
    03:00 +8°C° 0 mm 1 m/s 616 mmHg 77%
    04:00 +10°C° 0 mm 1 m/s 617 mmHg 75%
    05:00 +11°C° 0 mm 1 m/s 617 mmHg 72%
    06:00 +13°C° 0 mm 1 m/s 618 mmHg 70%
    07:00 +14°C° 0 mm 1 m/s 619 mmHg 64%
    08:00 +16°C° 0 mm 2 m/s 620 mmHg 59%
    09:00 +18°C° 0 mm 2 m/s 621 mmHg 53%
    10:00 +18°C° 0,1 mm 2 m/s 621 mmHg 52%
    11:00 +19°C° 0,1 mm 3 m/s 621 mmHg 52%
    12:00 +19°C° 0,1 mm 3 m/s 621 mmHg 52%
    13:00 +19°C° 0,6 mm 3 m/s 621 mmHg 55%
    14:00 +18°C° 0,6 mm 3 m/s 621 mmHg 59%
    15:00 +18°C° 0,6 mm 3 m/s 620 mmHg 63%
    16:00 +17°C° 0,8 mm 2 m/s 620 mmHg 69%
    17:00 +16°C° 0,8 mm 2 m/s 620 mmHg 74%
    18:00 +15°C° 0,8 mm 2 m/s 619 mmHg 80%
    19:00 +13°C° 0,4 mm 1 m/s 619 mmHg 85%
    20:00 +12°C° 0,4 mm 1 m/s 619 mmHg 90%
    21:00 +10°C° 0,4 mm 1 m/s 619 mmHg 95%
    22:00 +10°C° 0,1 mm 1 m/s 618 mmHg 94%
    23:00 +9°C° 0,1 mm 1 m/s 618 mmHg 94%

    28 Mai, Duminică

    Timp Temperatura Precipitaţii Vânt Presiune Umiditate
    00:00 +9°C° 0,1 mm 1 m/s 618 mmHg 94%
    01:00 +8°C° 0 mm 1 m/s 618 mmHg 94%
    02:00 +8°C° 0 mm 1 m/s 618 mmHg 94%
    03:00 +8°C° 0 mm 1 m/s 618 mmHg 94%
    04:00 +9°C° 0 mm 1 m/s 618 mmHg 91%
    05:00 +11°C° 0 mm 1 m/s 619 mmHg 89%
    06:00 +12°C° 0 mm 1 m/s 620 mmHg 86%
    07:00 +14°C° 0 mm 2 m/s 621 mmHg 77%
    08:00 +15°C° 0 mm 2 m/s 621 mmHg 68%
    09:00 +17°C° 0 mm 3 m/s 622 mmHg 59%
    10:00 +18°C° 0 mm 3 m/s 622 mmHg 55%
    11:00 +19°C° 0 mm 4 m/s 623 mmHg 50%
    12:00 +21°C° 0 mm 4 m/s 623 mmHg 46%
    13:00 +20°C° 0,1 mm 4 m/s 623 mmHg 47%
    14:00 +20°C° 0,1 mm 4 m/s 623 mmHg 48%
    15:00 +20°C° 0,1 mm 4 m/s 622 mmHg 49%
    16:00 +19°C° 0,1 mm 4 m/s 622 mmHg 53%
    17:00 +17°C° 0,1 mm 4 m/s 621 mmHg 58%
    18:00 +16°C° 0,1 mm 3 m/s 621 mmHg 62%
    19:00 +13°C° 0 mm 3 m/s 620 mmHg 67%
    20:00 +12°C° 0 mm 3 m/s 620 mmHg 72%
    21:00 +10°C° 0 mm 2 m/s 620 mmHg 77%
    22:00 +10°C° 0 mm 2 m/s 620 mmHg 72%
    23:00 +10°C° 0 mm 2 m/s 619 mmHg 67%
    Arată mai mult